Dauntless Aviation
Greetings, Guest! To participate, [sign up for a free account] or [log in]
Airports Europe United Kingdom
EGLC
LCY

London City

London, UNITED KINGDOM

Airport Info
Edit

Location

Latitude / Longitude: 51°30'18"N / 0°3'12"E
  51°30.3'N / 0°3.21'E
  51.5050 / 0.0535

Nearby radio navigation aids

LCY CITY NDB on field.

Runway Information

Runway 10 /28

Dimensions: 4948 x 98 ft.
Surface: ASP
 
Runway 10
Runway 28
Latitude: 51.505528 51.504922
Longitude: 0.045753 0.064953
Elevation: 16 ft. 16 ft.
Runway true heading: 91.1 271.1
 

Instrument Procedures

  Control Zone and Control Area Chart
  Aircraft Parking/Docking Chart
  Aerodrome Chart

STARs (Standard Terminal Arrivals)

  STAR via SPEAR (Northwest)
  STAR via ALKIN (South)
  STAR via SPEAR (East)
  STAR via SPEAR (West)
  STAR via SPEAR (Alternate Holding at LOGAN and ALKIN)

IAPs (Instrument Approach Procedures)

  LOC/DME/NDB (L) Rwy 27 (Aircraft CAT A/B/C)
  Visual Approach Profile Rwy 27
  ILS (5.5°GP) /DME/NDB (L) Rwy 27 (Aircraft CAT A/B/C)
  Visual Approach Profile Rwy 09
  LOC/DME/NDB (L) Rwy 09
  ATC Surveillance Minimum Altitude Chart
  ILS (5.5°GP) /DME/NDB (L) Rwy 09 (Aircraft CAT A/B/C)

Departure Procedures

  SID DOVER/LYDD
  SID CLACTON
  SID SOUTHAMPTON
  SID BROOKMANS PARK/COMPTON
Satellite photo at:
Airport distance calculator
From:
Weather Reports

METAR

EGLC

EGLC 051420Z 27012KT 9999 SCT045 11/02 Q1038
EGKB
11.4nm S
EGKB 051420Z 26010KT 220V290 9999 SCT030 10/00 Q1038
EGWU
17.8nm W
EGWU 051350Z 28009KT 9999 FEW028 BKN030 BKN200 10/02 Q1038 BLU NOSIG
EGLL
18.9nm SW
EGLL 051420Z 27012KT 9999 SCT035 11/03 Q1038
EGSS
23.5nm N
EGSS 051420Z 29011KT 9999 BKN034 09/02 Q1037
EGKK
23.8nm S
EGKK 051420Z 27009KT 9999 SCT040 11/02 Q1038

TAF

EGLC
TAF EGLC 051057Z 0512/0521 24008KT 9999 FEW040
EGKB
11.4nm S
TAF EGKB 051057Z 0512/0521 25008KT 9999 FEW040
EGWU
17.8nm W
TAF EGWU 051057Z 0512/0606 27010KT 9999 SCT025
EGLL
18.9nm SW
TAF EGLL 051100Z 0512/0618 26010KT 9999 SCT035
EGSS
23.5nm N
TAF EGSS 051058Z 0512/0618 23009KT 9999 SCT035
EGKK
23.8nm S
TAF EGKK 051100Z 0512/0618 24007KT 9999 SCT035
Safelog

 

Dauntless Aviation

© 2007-2015 Dauntless Aviation, all rights reserved
Information provided via PilotNav comes from a variety of official and unofficial data sources. As errors are possible, do not use PilotNav for primary flight planning purposes. Verify any information that you receive via PilotNav with current and canonical charts and other official documents. The material in this database is subject to database copyrights held by Dauntless Aviation and may not be copied without the express permission of Dauntless Aviation - licenses for use of part of all of this data are available for purchase; enquire via the Dauntless Aviation helpdesk. A number of mechanisms and markers exist in the database to protect against and identify infringement / copyright. Automated queries against this website are stictly prohibited, and all activity is logged and analyzed.